| time (UTC) | temp C | wind direction | speed KPH | gust KPH | rain 1hr cm | rain 24hr cm | rain mn cm | humidity % | barometer mb |
| 20260508231546 | 10 | 163 | 0.0 | 11.3 | 0.00 | 0.00 | 0.00 | 56 | 1010.2 |
| 20260508230043 | 10 | 182 | 0.0 | 8.0 | 0.00 | 0.00 | 0.00 | 55 | 1010.1 |
| 20260508224550 | 10 | 151 | 0.0 | 9.7 | 0.00 | 0.00 | 0.00 | 53 | 1009.9 |
| 20260508223041 | 10 | 168 | 0.0 | 11.3 | 0.00 | 0.00 | 0.00 | 53 | 1009.9 |
| 20260508221539 | 11 | 169 | 1.6 | 14.5 | 0.00 | 0.00 | 0.00 | 47 | 1009.7 |
| 20260508220046 | 11 | 191 | 1.6 | 9.7 | 0.00 | 0.00 | 0.00 | 39 | 1009.6 |
| 20260508214544 | 11 | 187 | 1.6 | 11.3 | 0.00 | 0.00 | 0.00 | 39 | 1009.4 |
| 20260508213040 | 11 | 232 | 6.4 | 17.7 | 0.00 | 0.00 | 0.00 | 37 | 1009.4 |
| 20260508211537 | 12 | 258 | 0.0 | 4.8 | 0.00 | 0.00 | 0.00 | 40 | 1009.2 |
| 20260508210038 | 11 | 193 | 0.0 | 6.4 | 0.00 | 0.00 | 0.00 | 39 | 1009.3 |
| 20260508204538 | 11 | 295 | 4.8 | 16.1 | 0.00 | 0.00 | 0.00 | 38 | 1009.2 |
| 20260508203037 | 12 | 263 | 1.6 | 20.9 | 0.00 | 0.00 | 0.00 | 39 | 1009.1 |
| 20260508201536 | 12 | 216 | 3.2 | 14.5 | 0.00 | 0.00 | 0.00 | 38 | 1009.0 |
| 20260508200037 | 12 | 169 | 0.0 | 19.3 | 0.00 | 0.00 | 0.00 | 36 | 1009.0 |
| 20260508194534 | 12 | 290 | 0.0 | 9.7 | 0.00 | 0.00 | 0.00 | 42 | 1009.2 |
| 20260508193035 | 12 | 239 | 0.0 | 9.7 | 0.00 | 0.00 | 0.00 | 40 | 1009.1 |
| 20260508191543 | 11 | 207 | 0.0 | 11.3 | 0.00 | 0.00 | 0.00 | 40 | 1009.2 |
| 20260508190040 | 11 | 273 | 1.6 | 12.9 | 0.00 | 0.00 | 0.00 | 40 | 1009.2 |
| 20260508184536 | 12 | 170 | 0.0 | 14.5 | 0.00 | 0.00 | 0.00 | 39 | 1009.3 |
| 20260508183035 | 12 | 156 | 1.6 | 9.7 | 0.00 | 0.00 | 0.00 | 42 | 1009.3 |
| 20260508181539 | 11 | 207 | 3.2 | 12.9 | 0.00 | 0.00 | 0.00 | 40 | 1009.5 |
| 20260508180028 | 11 | 179 | 1.6 | 11.3 | 0.00 | 0.00 | 0.00 | 42 | 1009.5 |
| 20260508174531 | 11 | 244 | 1.6 | 20.9 | 0.00 | 0.00 | 0.00 | 40 | 1009.6 |
| 20260508173026 | 11 | 159 | 1.6 | 9.7 | 0.00 | 0.00 | 0.00 | 41 | 1009.6 |
| 20260508171527 | 11 | 180 | 1.6 | 11.3 | 0.00 | 0.00 | 0.00 | 42 | 1009.6 |
| 20260508170024 | 10 | 266 | 3.2 | 16.1 | 0.00 | 0.00 | 0.00 | 42 | 1009.6 |
| 20260508164523 | 10 | 184 | 3.2 | 12.9 | 0.00 | 0.00 | 0.00 | 42 | 1009.7 |
| 20260508163022 | 10 | 288 | 0.0 | 11.3 | 0.00 | 0.00 | 0.00 | 45 | 1009.8 |
| 20260508161538 | 10 | 298 | 0.0 | 6.4 | 0.00 | 0.00 | 0.00 | 43 | 1009.8 |
| 20260508160021 | 10 | 155 | 1.6 | 9.7 | 0.00 | 0.00 | 0.00 | 44 | 1009.9 |
| 20260508154522 | 10 | 276 | 3.2 | 11.3 | 0.00 | 0.00 | 0.00 | 47 | 1009.9 |
| 20260508153034 | 10 | 212 | 1.6 | 16.1 | 0.00 | 0.00 | 0.00 | 49 | 1010.0 |
| 20260508151517 | 10 | 294 | 4.8 | 14.5 | 0.00 | 0.00 | 0.00 | 50 | 1009.8 |
| 20260508150016 | 10 | 123 | 6.4 | 16.1 | 0.00 | 0.00 | 0.00 | 44 | 1009.6 |
| 20260508144516 | 9 | 243 | 1.6 | 22.5 | 0.00 | 0.00 | 0.00 | 47 | 1009.8 |
| 20260508143014 | 9 | 284 | 3.2 | 19.3 | 0.00 | 0.00 | 0.00 | 47 | 1009.9 |
| 20260508141512 | 8 | 163 | 9.7 | 29.0 | 0.00 | 0.00 | 0.00 | 47 | 1010.0 |
| 20260508140010 | 8 | 165 | 4.8 | 19.3 | 0.00 | 0.00 | 0.00 | 47 | 1009.9 |
| 20260508134511 | 8 | 153 | 4.8 | 16.1 | 0.00 | 0.00 | 0.00 | 51 | 1010.0 |
| 20260508133005 | 8 | 257 | 4.8 | 32.2 | 0.00 | 0.00 | 0.00 | 53 | 1010.1 |
| 20260508131501 | 7 | 195 | 0.0 | 19.3 | 0.00 | 0.00 | 0.00 | 56 | 1010.1 |
| 20260508130057 | 6 | 180 | 3.2 | 11.3 | 0.00 | 0.00 | 0.00 | 58 | 1010.2 |
| 20260508124553 | 6 | 164 | 3.2 | 11.3 | 0.00 | 0.00 | 0.00 | 61 | 1010.3 |
| 20260508123051 | 5 | 160 | 3.2 | 17.7 | 0.00 | 0.00 | 0.00 | 65 | 1010.4 |
| 20260508121547 | 4 | 195 | 0.0 | 6.4 | 0.00 | 0.00 | 0.00 | 80 | 1010.4 |
| 20260508120041 | 3 | 181 | 0.0 | 6.4 | 0.00 | 0.00 | 0.00 | 90 | 1010.4 |
| 20260508114538 | 2 | 355 | 0.0 | 3.2 | 0.00 | 0.00 | 0.00 | 91 | 1010.4 |
| 20260508113035 | 2 | 355 | 0.0 | 1.6 | 0.00 | 0.00 | 0.00 | 91 | 1010.3 |
| 20260508111539 | 1 | 355 | 0.0 | 1.6 | 0.00 | 0.00 | 0.00 | 91 | 1010.2 |
| 20260508110034 | 1 | 355 | 0.0 | 0.0 | 0.00 | 0.00 | 0.00 | 91 | 1010.1 |
| 20260508104530 | 0 | 355 | 0.0 | 0.0 | 0.00 | 0.00 | 0.00 | 91 | 1010.0 |
| 20260508103040 | 0 | 355 | 0.0 | 0.0 | 0.00 | 0.00 | 0.00 | 90 | 1009.9 |
| 20260508101527 | 0 | 355 | 0.0 | 0.0 | 0.00 | 0.00 | 0.00 | 91 | 1009.7 |
| 20260508100029 | 0 | 355 | 0.0 | 0.0 | 0.00 | 0.00 | 0.00 | 90 | 1009.5 |
| 20260508094523 | 0 | 355 | 0.0 | 3.2 | 0.00 | 0.00 | 0.00 | 90 | 1009.3 |
| 20260508093030 | 0 | 355 | 0.0 | 3.2 | 0.00 | 0.00 | 0.00 | 90 | 1009.3 |
| 20260508091521 | 0 | 355 | 0.0 | 3.2 | 0.00 | 0.00 | 0.00 | 90 | 1009.3 |
| 20260508090022 | 0 | 355 | 0.0 | 1.6 | 0.00 | 0.00 | 0.00 | 90 | 1009.2 |
| 20260508084519 | 0 | 355 | 0.0 | 0.0 | 0.00 | 0.00 | 0.00 | 89 | 1009.1 |
| 20260508083019 | 0 | 355 | 0.0 | 3.2 | 0.00 | 0.00 | 0.00 | 89 | 1009.0 |
| 20260508081519 | 0 | 355 | 0.0 | 1.6 | 0.00 | 0.00 | 0.00 | 88 | 1008.9 |
| 20260508080018 | 0 | 355 | 0.0 | 1.6 | 0.00 | 0.00 | 0.00 | 88 | 1008.9 |
| 20260508074517 | 0 | 355 | 0.0 | 1.6 | 0.00 | 0.00 | 0.00 | 87 | 1009.0 |
| 20260508073015 | 0 | 355 | 0.0 | 0.0 | 0.00 | 0.00 | 0.00 | 86 | 1008.8 |
| 20260508071516 | 0 | 355 | 0.0 | 0.0 | 0.00 | 0.00 | 0.00 | 86 | 1008.8 |
| 20260508070012 | 0 | 355 | 0.0 | 1.6 | 0.00 | 0.00 | 0.00 | 86 | 1008.9 |
| 20260508064511 | 0 | 355 | 0.0 | 0.0 | 0.00 | 0.00 | 0.00 | 85 | 1008.8 |
| 20260508063009 | 0 | 355 | 0.0 | 0.0 | 0.00 | 0.00 | 0.00 | 85 | 1008.9 |
| 20260508061507 | 0 | 355 | 0.0 | 0.0 | 0.00 | 0.00 | 0.00 | 85 | 1008.9 |
| 20260508060006 | 0 | 355 | 0.0 | 0.0 | 0.00 | 0.00 | 0.00 | 85 | 1008.9 |
| 20260508054510 | 1 | 355 | 0.0 | 0.0 | 0.00 | 0.00 | 0.00 | 85 | 1008.9 |
| 20260508053003 | 1 | 355 | 0.0 | 1.6 | 0.00 | 0.00 | 0.00 | 85 | 1008.9 |
| 20260508051501 | 1 | 355 | 0.0 | 0.0 | 0.00 | 0.00 | 0.00 | 83 | 1009.1 |
| 20260508050100 | 1 | 355 | 0.0 | 0.0 | 0.00 | 0.00 | 0.00 | 83 | 1009.0 |
| 20260508044557 | 1 | 355 | 0.0 | 0.0 | 0.00 | 0.00 | 0.00 | 82 | 1009.2 |
| 20260508043100 | 1 | 355 | 0.0 | 1.6 | 0.00 | 0.00 | 0.00 | 80 | 1009.3 |
| 20260508041553 | 1 | 355 | 0.0 | 0.0 | 0.00 | 0.00 | 0.00 | 79 | 1009.2 |
| 20260508040049 | 2 | 355 | 0.0 | 1.6 | 0.00 | 0.00 | 0.00 | 78 | 1009.2 |
| 20260508034551 | 2 | 355 | 0.0 | 0.0 | 0.00 | 0.00 | 0.00 | 77 | 1009.1 |
| 20260508033045 | 2 | 355 | 0.0 | 0.0 | 0.00 | 0.00 | 0.00 | 75 | 1009.1 |
| 20260508031543 | 3 | 355 | 0.0 | 0.0 | 0.00 | 0.00 | 0.00 | 74 | 1009.0 |
| 20260508030043 | 3 | 355 | 0.0 | 1.6 | 0.00 | 0.00 | 0.00 | 72 | 1009.1 |
| 20260508024542 | 4 | 355 | 0.0 | 1.6 | 0.00 | 0.00 | 0.00 | 71 | 1009.0 |
| 20260508023034 | 5 | 355 | 0.0 | 1.6 | 0.00 | 0.00 | 0.00 | 68 | 1009.0 |
| 20260508021530 | 5 | 355 | 0.0 | 3.2 | 0.00 | 0.00 | 0.00 | 66 | 1008.9 |
| 20260508020031 | 6 | 349 | 1.6 | 3.2 | 0.00 | 0.10 | 0.00 | 62 | 1008.8 |
| 20260508014536 | 7 | 348 | 0.0 | 1.6 | 0.00 | 0.10 | 0.00 | 56 | 1008.5 |
| 20260508013029 | 7 | 348 | 0.0 | 4.8 | 0.00 | 0.10 | 0.00 | 54 | 1008.6 |
| 20260508011529 | 8 | 273 | 0.0 | 11.3 | 0.00 | 0.10 | 0.00 | 49 | 1008.5 |
| 20260508010044 | 8 | 177 | 0.0 | 3.2 | 0.00 | 0.18 | 0.00 | 49 | 1008.3 |
| 20260508004531 | 8 | 306 | 0.0 | 6.4 | 0.00 | 0.18 | 0.00 | 47 | 1008.2 |
| 20260508003028 | 8 | 215 | 0.0 | 4.8 | 0.00 | 0.18 | 0.00 | 46 | 1008.0 |
| 20260508001529 | 9 | 236 | 0.0 | 4.8 | 0.00 | 0.18 | 0.00 | 45 | 1007.9 |
| 20260508000026 | 10 | 298 | 0.0 | 6.4 | 0.00 | 0.28 | 0.00 | 45 | 1007.8 |
| 20260507234527 | 10 | 223 | 0.0 | 6.4 | 0.00 | 0.28 | 0.00 | 43 | 1007.7 |
| 20260507233028 | 10 | 192 | 0.0 | 11.3 | 0.00 | 0.28 | 0.00 | 41 | 1007.4 |